QPF
0.00 0.00 0.00 0.06 0.14 0.00 0.00 0.00 0.00 0.00 0.00 0.00 0.00 0.00 0.05 0.01 0.00 0.00 0.00 0.00 0.00 0.00 0.00 0.00 0.00 0.00 0.00 0.00 0.00 0.01 0.00 0.00 0.00 0.00 0.00 0.00 0.00 0.00 0.00 0.00 0.00 0.00 0.00 0.01 0.00 0.01 0.01 0.00 0.00
0.00 0.00 0.01 0.16 0.03 0.00 0.00 0.00 0.00 0.00 0.00 0.00 0.00 0.00 0.02 0.04 0.00 0.00 0.00 0.00 0.00 0.00 0.00 0.00 0.00 0.00 0.00 0.00 0.00 0.00 0.00 0.00 0.00 0.00 0.00 0.00 0.03 0.00 0.00 0.00 0.00 0.00 0.00 0.00 0.00 0.00 0.00 0.00 0.00
0.02 0.00 0.04 0.09 0.00 0.00 0.00 0.00 0.00 0.00 0.00 0.04 0.02 0.01 0.02 0.02 0.01 0.00 0.00 0.00 0.00 0.00 0.00 0.00 0.00 0.00 0.00 0.00 0.00 0.00 0.00 0.00 0.00 0.00 0.00 0.04 0.06 0.00 0.00 0.01 0.00 0.00 0.00 0.00 0.00 0.00 0.00 0.00 0.00
0.04 0.00 0.04 0.03 0.00 0.00 0.00 0.00 0.00 0.00 0.00 0.02 0.07 0.00 0.00 0.00 0.00 0.00 0.00 0.00 0.00 0.00 0.00 0.00 0.00 0.00 0.00 0.00 0.00 0.00 0.00 0.00 0.00 0.00 0.02 0.08 0.00 0.00 0.00 0.01 0.00 0.00 0.00 0.00 0.00 0.00 0.00 0.00 0.00
0.01 0.02 0.01 0.00 0.00 0.00 0.00 0.00 0.00 0.00 0.00 0.00 0.00 0.00 0.00 0.00 0.00 0.00 0.00 0.00 0.00 0.00 0.00 0.00 0.00 0.00 0.00 0.00 0.00 0.00 0.00 0.00 0.00 0.00 0.00 0.05 0.01 0.00 0.00 0.00 0.01 0.00 0.00 0.00 0.00 0.00 0.00 0.00 0.00
0.00 0.00 0.00 0.00 0.00 0.00 0.00 0.00 0.00 0.00 0.00 0.00 0.00 0.00 0.00 0.00 0.00 0.00 0.00 0.00 0.00 0.00 0.00 0.00 0.00 0.00 0.00 0.00 0.00 0.00 0.00 0.00 0.00 0.00 0.00 0.03 0.03 0.00 0.00 0.01 0.04 0.00 0.00 0.00 0.00 0.00 0.00 0.00 0.00
0.00 0.00 0.00 0.00 0.00 0.00 0.00 0.00 0.00 0.00 0.00 0.00 0.00 0.00 0.00 0.00 0.00 0.00 0.00 0.00 0.00 0.00 0.00 0.00 0.00 0.00 0.00 0.00 0.00 0.00 0.00 0.00 0.00 0.00 0.00 0.00 0.05 0.00 0.01 0.02 0.01 0.00 0.00 0.00 0.00 0.00 0.00 0.00 0.00
0.00 0.00 0.00 0.00 0.00 0.00 0.00 0.00 0.00 0.00 0.00 0.00 0.00 0.00 0.00 0.00 0.00 0.00 0.00 0.00 0.00 0.00 0.00 0.00 0.00 0.00 0.00 0.00 0.00 0.00 0.00 0.00 0.00 0.00 0.00 0.00 0.02 0.02 0.00 0.00 0.00 0.00 0.00 0.00 0.00 0.00 0.00 0.00 0.00
0.00 0.01 0.00 0.00 0.00 0.00 0.00 0.00 0.00 0.00 0.00 0.00 0.00 0.00 0.00 0.00 0.00 0.00 0.00 0.00 0.00 0.00 0.00 0.00 0.00 0.00 0.00 0.00 0.00 0.00 0.00 0.00 0.00 0.00 0.00 0.00 0.00 0.00 0.00 0.00 0.00 0.00 0.00 0.00 0.00 0.00 0.00 0.00 0.00
0.00 0.00 0.00 0.00 0.00 0.00 0.00 0.00 0.00 0.00 0.00 0.00 0.00 0.00 0.00 0.00 0.00 0.00 0.00 0.00 0.00 0.00 0.00 0.00 0.00 0.00 0.00 0.00 0.00 0.00 0.00 0.00 0.00 0.00 0.00 0.00 0.00 0.00 0.00 0.00 0.00 0.00 0.00 0.00 0.00 0.00 0.00 0.00 0.00
0.00 0.00 0.00 0.00 0.00 0.00 0.00 0.00 0.00 0.00 0.00 0.00 0.00 0.00 0.00 0.00 0.00 0.00 0.00 0.00 0.00 0.00 0.00 0.00 0.00 0.00 0.00 0.00 0.00 0.00 0.00 0.00 0.00 0.00 0.00 0.00 0.00 0.00 0.00 0.00 0.00 0.00 0.00 0.00 0.00 0.00 0.00 0.00 0.00
0.00 0.00 0.00 0.00 0.00 0.00 0.00 0.00 0.00 0.00 0.00 0.00 0.00 0.00 0.00 0.00 0.00 0.00 0.00 0.00 0.00 0.00 0.00 0.00 0.00 0.00 0.00 0.00 0.00 0.00 0.00 0.01 0.08 0.03 0.00 0.00 0.00 0.00 0.00 0.00 0.00 0.00 0.00 0.00 0.00 0.00 0.00 0.00 0.00
0.00 0.00 0.00 0.00 0.00 0.00 0.00 0.00 0.00 0.00 0.00 0.00 0.00 0.00 0.00 0.00 0.00 0.00 0.00 0.00 0.00 0.00 0.00 0.00 0.00 0.00 0.00 0.00 0.00 0.00 0.00 0.01 0.08 0.11 0.01 0.00 0.00 0.00 0.00 0.00 0.00 0.00 0.00 0.00 0.00 0.00 0.00 0.00 0.00
0.00 0.00 0.00 0.00 0.00 0.00 0.00 0.00 0.00 0.00 0.00 0.00 0.00 0.00 0.00 0.00 0.00 0.00 0.00 0.00 0.00 0.00 0.00 0.00 0.00 0.00 0.00 0.00 0.00 0.00 0.00 0.00 0.00 0.04 0.03 0.00 0.00 0.00 0.00 0.00 0.00 0.00 0.00 0.00 0.00 0.00 0.00 0.00 0.00
0.00 0.00 0.00 0.00 0.00 0.00 0.00 0.00 0.00 0.00 0.00 0.00 0.00 0.00 0.00 0.00 0.00 0.00 0.00 0.00 0.00 0.00 0.00 0.00 0.00 0.00 0.00 0.00 0.00 0.00 0.00 0.00 0.00 0.04 0.03 0.00 0.00 0.00 0.00 0.00 0.00 0.00 0.00 0.06 0.00 0.00 0.00 0.00 0.01
0.00 0.00 0.00 0.00 0.00 0.00 0.00 0.00 0.00 0.00 0.00 0.00 0.00 0.00 0.00 0.00 0.00 0.00 0.00 0.00 0.00 0.00 0.00 0.00 0.00 0.00 0.00 0.00 0.00 0.00 0.00 0.00 0.00 0.01 0.03 0.01 0.00 0.00 0.00 0.00 0.00 0.00 0.01 0.03 0.16 0.10 0.01 0.03 0.02
0.00 0.00 0.00 0.00 0.00 0.00 0.00 0.00 0.00 0.00 0.00 0.00 0.00 0.00 0.00 0.00 0.00 0.00 0.00 0.00 0.00 0.00 0.00 0.00 0.00 0.00 0.00 0.00 0.00 0.00 0.00 0.01 0.01 0.03 0.12 0.00 0.00 0.00 0.00 0.00 0.00 0.00 0.06 0.04 0.07 0.14 0.06 0.03 0.06
0.03 0.01 0.01 0.00 0.00 0.00 0.00 0.00 0.00 0.00 0.00 0.00 0.00 0.00 0.00 0.00 0.00 0.00 0.00 0.00 0.00 0.00 0.00 0.00 0.00 0.00 0.00 0.00 0.00 0.00 0.01 0.06 0.09 0.07 0.02 0.00 0.00 0.00 0.00 0.00 0.00 0.00 0.00 0.00 0.02 0.03 0.01 0.01 0.03
0.01 0.01 0.00 0.00 0.00 0.00 0.00 0.00 0.00 0.00 0.00 0.00 0.00 0.00 0.00 0.00 0.00 0.00 0.00 0.00 0.00 0.00 0.00 0.00 0.00 0.00 0.00 0.00 0.00 0.00 0.00 0.06 0.04 0.03 0.03 0.00 0.00 0.00 0.00 0.03 0.00 0.01 0.03 0.00 0.06 0.01 0.03 0.02 0.02
0.00 0.00 0.00 0.00 0.00 0.00 0.00 0.00 0.00 0.00 0.00 0.00 0.00 0.00 0.00 0.00 0.00 0.00 0.00 0.00 0.00 0.00 0.00 0.00 0.00 0.00 0.00 0.00 0.00 0.00 0.00 0.00 0.02 0.02 0.12 0.25 0.24 0.05 0.02 0.04 0.00 0.01 0.01 0.00 0.01 0.00 0.00 0.06 0.07
0.00 0.00 0.00 0.00 0.00 0.00 0.00 0.00 0.00 0.00 0.00 0.00 0.00 0.00 0.00 0.00 0.00 0.00 0.00 0.00 0.00 0.00 0.00 0.00 0.00 0.00 0.00 0.00 0.00 0.00 0.00 0.02 0.02 0.02 0.04 0.37 0.25 0.03 0.07 0.06 0.00 0.00 0.00 0.00 0.00 0.00 0.00 0.01 0.06
0.00 0.00 0.00 0.00 0.00 0.00 0.00 0.00 0.00 0.00 0.00 0.00 0.00 0.00 0.00 0.00 0.00 0.00 0.00 0.00 0.00 0.00 0.00 0.00 0.00 0.00 0.00 0.00 0.00 0.00 0.00 0.00 0.00 0.00 0.03 0.03 0.01 0.00 0.00 0.03 0.08 0.10 0.02 0.00 0.00 0.00 0.00 0.00 0.04
0.00 0.00 0.00 0.00 0.00 0.00 0.00 0.00 0.00 0.00 0.00 0.00 0.00 0.00 0.00 0.00 0.00 0.00 0.00 0.00 0.00 0.00 0.00 0.00 0.00 0.00 0.00 0.00 0.00 0.00 0.00 0.00 0.00 0.00 0.02 0.00 0.00 0.00 0.00 0.00 0.04 0.09 0.03 0.01 0.00 0.00 0.00 0.00 0.00
0.00 0.00 0.00 0.00 0.00 0.00 0.00 0.00 0.00 0.00 0.00 0.00 0.00 0.00 0.00 0.00 0.00 0.00 0.00 0.00 0.00 0.00 0.00 0.00 0.00 0.00 0.00 0.00 0.00 0.00 0.00 0.00 0.00 0.01 0.01 0.00 0.00 0.00 0.00 0.00 0.00 0.00 0.00 0.00 0.00 0.00 0.00 0.00 0.02
0.00 0.00 0.00 0.00 0.00 0.00 0.00 0.00 0.00 0.00 0.00 0.00 0.00 0.00 0.00 0.00 0.00 0.01 0.00 0.00 0.00 0.00 0.00 0.00 0.00 0.00 0.00 0.00 0.00 0.00 0.00 0.00 0.00 0.00 0.03 0.01 0.00 0.00 0.00 0.00 0.00 0.00 0.00 0.00 0.00 0.00 0.00 0.00 0.02
0.00 0.00 0.00 0.00 0.00 0.00 0.00 0.00 0.00 0.00 0.00 0.00 0.00 0.00 0.00 0.00 0.00 0.00 0.00 0.00 0.00 0.00 0.00 0.00 0.00 0.00 0.00 0.00 0.00 0.00 0.00 0.00 0.00 0.00 0.01 0.00 0.00 0.00 0.00 0.00 0.00 0.00 0.00 0.00 0.00 0.00 0.00 0.00 0.03
0.00 0.00 0.00 0.00 0.00 0.00 0.00 0.00 0.00 0.00 0.00 0.00 0.00 0.00 0.00 0.00 0.00 0.00 0.00 0.00 0.00 0.00 0.00 0.00 0.00 0.00 0.00 0.00 0.00 0.00 0.00 0.00 0.00 0.00 0.00 0.00 0.00 0.00 0.00 0.00 0.00 0.00 0.00 0.00 0.00 0.00 0.00 0.00 0.01
0.00 0.00 0.00 0.00 0.00 0.00 0.00 0.00 0.00 0.00 0.00 0.00 0.00 0.00 0.00 0.00 0.00 0.00 0.00 0.00 0.00 0.00 0.00 0.00 0.00 0.00 0.00 0.00 0.00 0.00 0.00 0.00 0.00 0.00 0.00 0.00 0.00 0.02 0.00 0.00 0.00 0.00 0.00 0.00 0.00 0.00 0.00 0.10 0.15
0.00 0.00 0.00 0.00 0.00 0.00 0.00 0.00 0.00 0.00 0.00 0.00 0.00 0.00 0.00 0.00 0.00 0.00 0.00 0.00 0.00 0.00 0.00 0.00 0.00 0.00 0.00 0.00 0.00 0.00 0.00 0.00 0.00 0.00 0.00 0.00 0.00 0.03 0.00 0.00 0.00 0.00 0.00 0.00 0.00 0.00 0.01 0.24 0.20
0.00 0.00 0.00 0.00 0.00 0.00 0.00 0.00 0.00 0.00 0.00 0.00 0.00 0.00 0.00 0.00 0.00 0.00 0.00 0.00 0.00 0.00 0.00 0.00 0.00 0.00 0.00 0.00 0.00 0.00 0.00 0.00 0.00 0.00 0.00 0.00 0.00 0.01 0.00 0.00 0.00 0.00 0.00 0.00 0.02 0.00 0.00 0.08 0.07
MSLP
1008.68 1008.95 1009.36 1009.61 1010.19 1009.63 1009.94 1009.92 1009.52 1009.68 1009.93 1010.15 1010.39 1010.81 1011.49 1012.04 1012.44 1013.51 1013.12 1013.60 1013.99 1014.48 1014.58 1014.73 1014.76 1014.90 1015.07 1015.03 1015.04 1015.13 1015.18 1015.21 1015.33 1015.34 1015.60 1015.85 1015.97 1015.99 1016.04 1016.14 1016.18 1016.32 1016.52 1016.83 1017.00 1017.08 1017.14 1017.27 1017.36
1008.70 1009.24 1009.56 1009.34 1009.48 1009.69 1010.08 1009.60 1009.40 1009.28 1009.68 1010.01 1010.27 1010.79 1011.52 1012.24 1012.35 1013.01 1013.65 1013.71 1013.85 1014.32 1014.66 1014.91 1014.98 1015.11 1015.26 1015.40 1015.38 1015.34 1015.37 1015.40 1015.57 1015.63 1015.80 1016.04 1016.22 1016.20 1016.32 1016.39 1016.48 1016.56 1016.72 1016.94 1017.32 1017.56 1017.55 1017.61 1017.71
1008.93 1009.05 1009.48 1009.18 1009.28 1009.48 1009.46 1009.31 1009.16 1009.45 1009.55 1009.99 1010.61 1011.02 1011.69 1012.31 1012.44 1012.72 1013.04 1013.60 1013.91 1014.47 1014.62 1014.88 1015.04 1015.18 1015.34 1015.43 1015.56 1015.61 1015.58 1015.61 1015.71 1015.86 1016.04 1016.28 1016.36 1016.46 1016.52 1016.62 1016.80 1016.92 1017.01 1017.16 1017.42 1017.76 1017.93 1018.07 1018.10
1008.82 1009.35 1009.41 1009.02 1008.94 1008.67 1008.54 1008.85 1008.93 1009.29 1009.68 1010.24 1010.50 1011.43 1011.82 1011.90 1012.16 1012.37 1012.89 1013.51 1014.15 1014.59 1014.66 1014.75 1015.00 1015.19 1015.37 1015.48 1015.71 1015.88 1015.91 1015.96 1015.91 1016.02 1016.28 1016.47 1016.45 1016.60 1016.77 1016.94 1017.02 1017.20 1017.39 1017.57 1017.71 1017.91 1018.14 1018.23 1018.29
1008.77 1009.03 1008.98 1008.90 1008.73 1008.48 1008.22 1008.29 1008.65 1009.07 1009.47 1010.18 1010.61 1011.54 1011.95 1012.13 1012.14 1012.68 1013.33 1013.80 1014.17 1014.61 1014.82 1014.94 1015.12 1015.34 1015.55 1015.64 1015.77 1016.05 1016.19 1016.26 1016.31 1016.30 1016.37 1016.53 1016.61 1016.72 1016.98 1017.10 1017.28 1017.49 1017.65 1017.82 1018.03 1018.26 1018.47 1018.60 1018.66
1008.73 1008.83 1008.92 1008.90 1008.57 1008.40 1008.22 1008.13 1008.48 1009.04 1009.72 1010.27 1010.83 1011.34 1012.39 1012.14 1012.67 1013.27 1013.71 1014.27 1014.41 1014.70 1014.78 1015.15 1015.28 1015.57 1015.76 1015.83 1015.94 1016.09 1016.26 1016.51 1016.63 1016.64 1016.68 1016.87 1016.90 1017.00 1017.15 1017.43 1017.49 1017.69 1017.88 1018.03 1018.23 1018.51 1018.71 1018.93 1019.02
1008.57 1008.58 1008.59 1008.42 1008.41 1008.21 1007.95 1007.96 1008.46 1009.22 1009.91 1010.37 1010.65 1011.62 1012.59 1012.86 1012.87 1013.48 1014.05 1014.52 1014.75 1014.88 1015.00 1015.20 1015.37 1015.61 1015.82 1015.99 1016.11 1016.32 1016.49 1016.56 1016.80 1016.89 1017.01 1017.07 1017.24 1017.34 1017.45 1017.64 1017.77 1017.87 1018.13 1018.34 1018.51 1018.74 1018.92 1019.11 1019.18
1008.32 1008.58 1008.26 1007.88 1007.75 1007.56 1007.46 1007.88 1008.38 1008.98 1009.76 1010.24 1010.72 1011.51 1012.38 1012.76 1013.06 1013.81 1014.51 1014.99 1015.19 1015.29 1015.25 1015.48 1015.61 1015.67 1015.85 1016.06 1016.26 1016.45 1016.67 1016.75 1016.88 1017.07 1017.22 1017.35 1017.46 1017.57 1017.60 1017.78 1017.88 1018.11 1018.34 1018.50 1018.67 1018.89 1019.10 1019.21 1019.31
1007.99 1008.20 1008.04 1007.24 1007.20 1006.84 1007.20 1007.74 1008.53 1008.99 1009.76 1010.11 1010.49 1010.98 1011.47 1012.57 1013.28 1014.13 1015.00 1015.49 1015.66 1015.63 1015.76 1015.79 1015.78 1015.93 1016.09 1016.40 1016.51 1016.57 1016.74 1016.92 1017.00 1017.09 1017.36 1017.65 1017.84 1017.88 1017.88 1018.06 1018.05 1018.20 1018.46 1018.66 1018.83 1018.94 1019.15 1019.25 1019.34
1007.65 1007.75 1006.70 1005.88 1006.15 1006.37 1006.71 1007.31 1008.00 1008.83 1009.75 1010.03 1010.62 1011.06 1011.83 1012.65 1013.52 1014.32 1015.00 1015.47 1015.75 1015.75 1015.94 1016.07 1015.98 1016.13 1016.30 1016.37 1016.66 1016.81 1016.87 1016.98 1017.16 1017.29 1017.55 1017.86 1018.02 1018.14 1018.18 1018.22 1018.16 1018.27 1018.46 1018.68 1018.89 1019.03 1019.24 1019.40 1019.61
1006.96 1006.32 1005.11 1004.95 1005.18 1005.49 1006.30 1007.04 1007.61 1008.49 1009.51 1009.46 1010.10 1010.93 1011.87 1012.82 1013.42 1014.13 1014.82 1015.09 1015.18 1015.34 1015.74 1015.91 1016.05 1016.07 1016.20 1016.47 1016.68 1016.89 1016.90 1017.07 1017.31 1017.45 1017.61 1017.84 1017.95 1018.16 1018.25 1018.41 1018.40 1018.54 1018.58 1018.82 1018.93 1019.21 1019.49 1019.71 1019.80
1005.83 1004.98 1004.54 1004.50 1004.81 1005.39 1005.70 1006.51 1007.23 1007.82 1007.98 1008.51 1009.74 1010.19 1011.42 1012.49 1013.18 1013.78 1014.38 1014.82 1015.13 1015.35 1015.49 1015.68 1015.67 1015.93 1016.15 1016.39 1016.57 1016.77 1016.94 1017.12 1017.43 1017.44 1017.45 1017.76 1017.93 1018.04 1018.27 1018.47 1018.58 1018.70 1018.76 1018.95 1019.04 1019.28 1019.55 1019.78 1019.93
1004.86 1004.49 1004.28 1004.16 1004.49 1004.75 1005.36 1005.93 1006.55 1007.47 1008.03 1008.61 1009.72 1010.60 1011.10 1012.18 1013.03 1013.61 1013.85 1014.22 1014.57 1014.94 1015.16 1015.39 1015.56 1015.83 1015.94 1016.28 1016.34 1016.44 1016.70 1016.88 1017.38 1017.46 1017.39 1017.49 1017.78 1017.90 1018.06 1018.37 1018.49 1018.67 1018.94 1019.17 1019.29 1019.34 1019.50 1019.71 1019.89
1003.93 1004.05 1004.21 1004.42 1004.70 1004.93 1005.39 1006.13 1006.73 1007.62 1008.18 1009.13 1009.73 1010.55 1011.15 1011.59 1012.28 1013.08 1013.55 1013.82 1014.17 1014.37 1014.75 1014.98 1015.21 1015.31 1015.72 1016.02 1016.14 1016.08 1016.37 1016.45 1016.83 1017.18 1017.20 1017.27 1017.50 1017.69 1017.89 1018.27 1018.49 1018.69 1018.90 1019.18 1019.40 1019.57 1019.63 1019.71 1019.85
1003.79 1004.62 1004.81 1005.11 1005.05 1005.12 1005.55 1006.42 1006.74 1007.33 1008.23 1009.14 1009.97 1010.67 1011.33 1011.63 1011.93 1012.20 1012.65 1013.20 1013.68 1013.97 1014.12 1014.47 1014.80 1014.94 1015.33 1015.57 1015.70 1015.89 1016.10 1016.12 1016.40 1016.67 1016.81 1017.03 1017.18 1017.54 1017.80 1018.07 1018.44 1018.63 1018.89 1019.20 1019.44 1019.61 1019.76 1019.78 1019.69
1004.62 1005.37 1005.90 1006.10 1005.72 1005.97 1005.82 1007.12 1007.28 1007.80 1008.11 1009.20 1009.89 1010.47 1011.02 1011.39 1011.59 1011.76 1011.91 1012.47 1012.99 1013.50 1013.99 1014.08 1014.36 1014.73 1014.98 1015.26 1015.38 1015.70 1015.85 1016.00 1016.11 1016.36 1016.61 1016.76 1017.01 1017.29 1017.67 1018.03 1018.24 1018.40 1018.73 1018.99 1019.28 1019.61 1019.80 1019.97 1019.96
1005.81 1006.17 1006.66 1006.74 1006.48 1006.27 1006.50 1007.24 1007.36 1007.76 1008.74 1009.16 1009.57 1009.91 1010.36 1010.95 1011.32 1011.31 1011.27 1011.66 1012.25 1012.94 1013.61 1014.02 1014.20 1014.48 1014.74 1015.10 1015.27 1015.51 1015.67 1015.91 1015.92 1016.18 1016.36 1016.52 1016.72 1017.01 1017.37 1017.66 1017.94 1018.20 1018.52 1018.79 1019.04 1019.31 1019.65 1019.80 1019.96
1006.53 1006.75 1007.31 1007.16 1007.29 1006.81 1007.13 1007.35 1007.20 1007.59 1008.33 1009.14 1009.61 1009.57 1010.01 1010.25 1010.28 1010.69 1010.82 1011.24 1011.84 1012.52 1013.15 1013.63 1014.00 1014.29 1014.59 1015.06 1015.41 1015.65 1015.83 1015.81 1015.94 1016.14 1016.07 1016.20 1016.36 1016.66 1017.02 1017.32 1017.64 1018.03 1018.36 1018.65 1018.97 1019.19 1019.50 1019.61 1019.71
1005.93 1006.64 1007.35 1007.60 1007.55 1007.65 1007.40 1007.12 1007.41 1007.45 1008.06 1008.85 1009.40 1009.88 1009.44 1009.57 1009.20 1010.06 1010.55 1011.07 1011.75 1012.48 1012.95 1013.26 1013.80 1014.13 1014.64 1015.11 1015.49 1015.78 1015.88 1015.82 1015.86 1015.88 1015.73 1015.73 1016.01 1016.27 1016.73 1017.00 1017.36 1017.73 1018.10 1018.28 1018.73 1019.07 1019.41 1019.62 1019.78
1005.82 1006.82 1007.64 1007.88 1007.50 1007.60 1006.97 1006.99 1007.19 1007.69 1007.60 1007.87 1008.36 1008.84 1009.41 1009.01 1009.41 1009.63 1010.12 1010.75 1011.25 1011.82 1012.50 1013.01 1013.24 1013.69 1014.07 1014.38 1014.72 1015.10 1015.49 1015.61 1015.46 1015.51 1015.65 1015.76 1015.87 1016.07 1016.43 1016.78 1017.22 1017.43 1017.79 1018.17 1018.54 1018.85 1019.14 1019.51 1019.69
1005.54 1006.47 1007.29 1007.21 1007.33 1007.63 1007.65 1007.12 1007.41 1007.44 1007.30 1007.47 1007.56 1007.88 1008.27 1008.66 1008.77 1009.03 1009.49 1010.05 1010.59 1011.38 1011.94 1012.42 1012.70 1013.08 1013.56 1013.93 1014.46 1015.01 1015.50 1015.71 1015.83 1015.74 1015.86 1015.67 1015.56 1015.91 1015.98 1016.28 1016.62 1017.22 1017.55 1017.93 1018.23 1018.50 1018.78 1019.09 1019.41
1005.03 1005.42 1006.34 1007.11 1008.55 1008.24 1008.17 1008.06 1006.61 1006.43 1006.23 1006.37 1006.74 1006.93 1007.18 1007.64 1008.12 1008.39 1008.74 1009.46 1009.96 1010.42 1011.34 1011.91 1012.38 1012.69 1013.12 1013.69 1014.15 1014.67 1014.99 1015.48 1015.46 1015.55 1015.70 1015.84 1015.62 1015.50 1015.54 1015.79 1016.17 1016.46 1017.01 1017.60 1017.91 1018.22 1018.47 1018.76 1019.14
1004.42 1004.84 1006.08 1007.83 1009.05 1009.38 1009.08 1009.14 1006.78 1006.10 1005.43 1005.18 1005.36 1005.72 1005.90 1006.20 1006.91 1007.55 1008.08 1008.48 1008.86 1009.89 1010.67 1011.39 1011.90 1012.38 1012.69 1013.33 1013.74 1014.23 1014.77 1015.11 1015.22 1015.59 1015.84 1015.87 1015.73 1015.58 1015.20 1015.23 1015.55 1015.92 1016.59 1017.13 1017.63 1017.97 1018.27 1018.46 1018.79
1004.30 1005.99 1007.51 1009.00 1009.73 1009.97 1009.19 1009.34 1006.77 1005.30 1003.80 1003.51 1003.77 1004.26 1004.58 1005.13 1005.92 1006.66 1007.32 1007.88 1008.64 1009.40 1010.27 1010.98 1011.54 1011.87 1012.27 1012.83 1013.38 1013.78 1014.40 1014.95 1015.46 1015.80 1016.06 1016.13 1015.96 1015.68 1015.68 1015.27 1015.11 1015.57 1016.31 1016.75 1017.23 1017.70 1018.03 1018.24 1018.52
1004.60 1006.81 1009.10 1010.54 1011.26 1010.49 1009.29 1009.03 1005.87 1003.05 1002.37 1002.39 1002.35 1002.63 1003.01 1003.96 1005.10 1005.99 1006.85 1007.51 1008.23 1008.95 1009.52 1010.25 1010.92 1011.50 1011.95 1012.42 1013.02 1013.41 1014.00 1014.46 1014.73 1015.25 1015.82 1016.11 1015.98 1015.75 1015.78 1015.82 1015.77 1015.77 1015.95 1016.31 1016.83 1017.47 1017.81 1018.12 1018.22
1004.32 1005.57 1007.78 1009.43 1010.86 1009.87 1009.10 1007.75 1004.00 1001.67 1000.95 1001.71 1002.06 1002.04 1002.44 1003.04 1003.69 1004.76 1005.44 1006.40 1007.29 1008.06 1008.83 1009.45 1010.23 1010.87 1011.51 1012.00 1012.39 1012.96 1013.54 1013.92 1014.33 1014.83 1015.32 1015.45 1015.37 1015.33 1015.67 1015.89 1015.82 1015.55 1015.95 1016.17 1016.74 1017.13 1017.35 1017.54 1017.78
1004.23 1005.30 1005.46 1007.91 1009.43 1009.15 1008.22 1005.93 1003.12 1001.40 1000.98 1001.11 1001.60 1001.84 1001.81 1002.27 1002.79 1003.72 1004.51 1005.45 1006.41 1007.21 1007.84 1008.65 1009.56 1010.21 1010.85 1011.27 1012.00 1012.67 1013.25 1013.57 1014.04 1014.50 1014.75 1014.87 1015.07 1015.35 1015.63 1015.65 1016.09 1015.79 1015.90 1016.22 1016.80 1017.04 1017.11 1017.33 1017.41
1002.18 1003.11 1005.39 1007.33 1008.55 1008.80 1007.66 1006.09 1003.53 1001.63 1001.33 1000.94 1001.06 1001.17 1001.21 1001.57 1002.23 1003.04 1003.63 1004.43 1005.37 1006.25 1006.96 1008.00 1008.94 1009.37 1009.99 1010.78 1011.55 1012.21 1012.80 1013.08 1013.60 1014.20 1014.56 1014.76 1014.84 1015.30 1015.72 1015.82 1016.03 1016.25 1016.31 1016.30 1016.57 1016.63 1016.77 1016.92 1017.11
1002.06 1002.79 1004.37 1005.74 1007.04 1007.62 1007.02 1005.36 1002.05 1001.20 1000.70 1000.59 1000.52 1000.60 1000.64 1000.78 1001.04 1001.87 1002.59 1003.49 1004.25 1005.46 1006.76 1007.58 1008.39 1009.01 1009.83 1010.42 1011.03 1011.81 1012.46 1012.81 1013.40 1013.83 1014.11 1014.45 1014.90 1015.32 1015.76 1015.80 1016.02 1016.27 1016.43 1016.40 1016.47 1016.46 1016.60 1016.81 1016.92
1000.51 1001.38 1002.71 1005.02 1006.61 1006.74 1005.75 1003.15 1000.58 1000.17 999.52 999.92 999.76 999.73 999.91 999.80 1000.17 1000.83 1001.77 1002.67 1003.87 1005.09 1006.00 1007.00 1007.86 1008.46 1009.05 1009.59 1010.47 1011.33 1012.04 1012.70 1013.26 1013.65 1013.74 1014.15 1014.78 1015.25 1015.45 1015.58 1015.86 1016.09 1016.36 1016.26 1016.44 1016.27 1016.51 1016.47 1016.79
Thickness
5805 5802 5799 5788 5765 5762 5748 5755 5774 5765 5766 5777 5782 5775 5766 5767 5759 5742 5774 5771 5768 5763 5762 5760 5761 5760 5758 5759 5760 5759 5760 5758 5758 5759 5757 5754 5753 5752 5752 5750 5750 5747 5744 5740 5739 5739 5739 5741 5741
5807 5801 5793 5782 5759 5744 5742 5769 5765 5773 5778 5784 5782 5776 5766 5756 5770 5765 5764 5773 5771 5766 5764 5762 5761 5761 5760 5759 5760 5760 5761 5760 5758 5758 5757 5755 5754 5753 5753 5751 5750 5749 5747 5745 5740 5739 5740 5742 5743
5808 5806 5781 5773 5758 5743 5744 5768 5772 5775 5783 5776 5773 5778 5769 5758 5769 5769 5774 5774 5772 5767 5768 5765 5764 5763 5762 5761 5760 5761 5762 5762 5760 5759 5758 5756 5756 5754 5754 5753 5752 5750 5749 5748 5746 5742 5741 5741 5743
5805 5795 5787 5767 5761 5773 5771 5774 5779 5776 5781 5782 5779 5761 5772 5780 5775 5778 5777 5774 5771 5769 5769 5768 5766 5765 5764 5764 5762 5761 5762 5763 5761 5760 5759 5757 5758 5756 5755 5754 5753 5751 5749 5748 5747 5746 5744 5744 5745
5809 5794 5774 5767 5769 5777 5784 5786 5786 5776 5777 5776 5777 5761 5762 5776 5782 5779 5775 5773 5770 5769 5769 5768 5767 5767 5765 5766 5765 5763 5762 5762 5761 5760 5761 5759 5758 5758 5757 5755 5753 5752 5750 5749 5748 5747 5744 5744 5745
5796 5795 5767 5753 5768 5781 5785 5791 5787 5780 5777 5777 5770 5766 5762 5779 5775 5773 5773 5770 5770 5770 5770 5769 5768 5767 5766 5767 5767 5766 5765 5763 5762 5760 5760 5759 5758 5757 5757 5755 5754 5753 5752 5751 5750 5749 5747 5744 5744
5793 5786 5776 5773 5769 5773 5783 5795 5781 5774 5773 5770 5779 5756 5761 5767 5775 5772 5769 5769 5769 5769 5769 5770 5770 5769 5768 5768 5768 5766 5765 5765 5762 5760 5759 5759 5757 5757 5756 5755 5754 5753 5753 5752 5752 5750 5750 5748 5748
5804 5791 5782 5783 5772 5775 5796 5792 5792 5782 5774 5787 5783 5755 5751 5768 5775 5771 5766 5765 5767 5768 5770 5770 5770 5771 5771 5770 5768 5766 5765 5764 5763 5761 5759 5758 5757 5757 5756 5755 5755 5754 5753 5753 5753 5753 5752 5752 5751
5816 5781 5771 5785 5782 5791 5804 5791 5797 5798 5781 5784 5785 5777 5779 5776 5774 5767 5762 5761 5763 5766 5768 5769 5770 5770 5771 5768 5768 5766 5764 5764 5763 5762 5760 5759 5758 5757 5757 5755 5755 5755 5754 5753 5753 5754 5754 5754 5755
5802 5779 5787 5812 5809 5801 5807 5801 5797 5789 5780 5780 5777 5783 5781 5775 5769 5763 5760 5759 5760 5764 5766 5770 5771 5771 5770 5769 5768 5767 5766 5765 5764 5763 5761 5760 5759 5758 5757 5755 5755 5755 5755 5755 5754 5754 5753 5754 5754
5808 5793 5817 5824 5825 5823 5810 5805 5808 5790 5774 5786 5778 5779 5778 5773 5770 5766 5762 5763 5765 5769 5770 5773 5773 5773 5772 5770 5769 5769 5768 5766 5764 5763 5761 5761 5761 5760 5759 5757 5756 5755 5756 5756 5756 5754 5753 5752 5753
5804 5820 5827 5829 5830 5825 5817 5817 5805 5802 5802 5808 5797 5795 5784 5773 5771 5769 5767 5767 5767 5770 5773 5775 5775 5774 5773 5771 5771 5770 5769 5767 5765 5764 5763 5763 5762 5762 5761 5759 5757 5757 5757 5757 5757 5757 5755 5753 5752
5814 5823 5833 5837 5834 5833 5830 5816 5813 5807 5811 5812 5803 5794 5788 5779 5774 5774 5774 5775 5775 5774 5776 5778 5778 5776 5775 5774 5774 5772 5772 5771 5766 5766 5766 5767 5765 5764 5763 5760 5759 5759 5757 5756 5756 5757 5756 5754 5752
5835 5831 5832 5833 5829 5832 5821 5816 5815 5811 5814 5804 5800 5794 5790 5787 5782 5778 5777 5778 5777 5780 5781 5782 5782 5780 5778 5778 5777 5776 5775 5775 5772 5769 5769 5769 5768 5766 5765 5762 5760 5759 5758 5757 5756 5755 5756 5756 5754
5840 5817 5825 5824 5825 5823 5826 5805 5803 5812 5810 5799 5795 5792 5789 5789 5789 5786 5787 5784 5781 5783 5785 5784 5783 5782 5782 5782 5780 5779 5778 5777 5775 5772 5772 5771 5770 5767 5766 5764 5761 5759 5758 5756 5754 5754 5753 5755 5756
5820 5811 5791 5812 5823 5821 5822 5781 5804 5814 5809 5796 5794 5792 5790 5791 5793 5796 5798 5795 5792 5790 5787 5788 5789 5786 5786 5784 5783 5780 5779 5778 5776 5775 5774 5772 5771 5768 5766 5763 5761 5761 5760 5758 5756 5755 5753 5753 5754
5803 5779 5787 5799 5818 5820 5814 5793 5813 5819 5808 5798 5798 5799 5797 5793 5797 5802 5807 5805 5800 5797 5793 5790 5791 5789 5788 5786 5783 5781 5780 5777 5777 5775 5775 5773 5773 5770 5768 5766 5763 5762 5761 5759 5757 5757 5755 5753 5753
5775 5787 5787 5791 5804 5813 5803 5801 5814 5819 5812 5801 5797 5801 5799 5798 5802 5806 5810 5811 5807 5802 5798 5795 5792 5790 5788 5785 5782 5779 5778 5778 5777 5775 5776 5775 5774 5772 5769 5766 5765 5762 5761 5759 5757 5756 5755 5755 5756
5804 5797 5790 5795 5807 5801 5804 5807 5812 5818 5814 5806 5801 5793 5804 5805 5815 5813 5811 5811 5807 5801 5797 5797 5792 5790 5786 5781 5777 5774 5774 5776 5777 5777 5779 5779 5777 5775 5771 5768 5766 5764 5763 5762 5758 5756 5753 5753 5754
5810 5795 5788 5797 5809 5804 5809 5810 5814 5810 5814 5817 5814 5808 5801 5811 5807 5812 5812 5812 5809 5804 5799 5796 5796 5791 5788 5787 5785 5780 5776 5778 5780 5778 5778 5775 5773 5773 5771 5769 5767 5766 5764 5762 5759 5758 5755 5754 5754
5805 5793 5788 5800 5806 5809 5802 5804 5806 5813 5819 5820 5823 5823 5819 5814 5812 5815 5816 5814 5813 5805 5801 5798 5798 5796 5792 5789 5785 5780 5777 5774 5773 5774 5774 5773 5766 5772 5772 5772 5770 5768 5765 5762 5760 5760 5759 5755 5755
5794 5819 5815 5804 5783 5777 5805 5768 5810 5816 5819 5825 5824 5825 5827 5823 5821 5822 5822 5817 5814 5813 5807 5803 5801 5798 5796 5791 5786 5780 5776 5772 5774 5774 5775 5774 5774 5775 5774 5774 5772 5772 5770 5765 5761 5761 5760 5759 5754
5811 5828 5816 5798 5780 5781 5784 5766 5794 5811 5813 5822 5832 5831 5836 5836 5831 5827 5825 5826 5826 5818 5812 5807 5804 5800 5799 5793 5789 5785 5779 5778 5776 5773 5772 5773 5774 5774 5778 5778 5777 5776 5773 5769 5764 5763 5761 5762 5759
5827 5802 5789 5772 5764 5750 5773 5768 5787 5810 5824 5838 5843 5843 5843 5843 5839 5836 5834 5832 5827 5822 5815 5809 5804 5804 5802 5797 5792 5788 5782 5777 5771 5770 5768 5768 5770 5772 5772 5778 5780 5778 5774 5772 5769 5766 5764 5764 5762
5806 5775 5726 5732 5730 5743 5768 5766 5807 5838 5849 5851 5855 5855 5856 5853 5841 5837 5832 5828 5826 5821 5818 5815 5809 5804 5804 5800 5793 5790 5785 5781 5777 5773 5769 5767 5768 5771 5770 5771 5772 5775 5775 5774 5771 5768 5765 5764 5764
5798 5786 5746 5725 5718 5749 5767 5757 5810 5856 5871 5865 5861 5861 5862 5860 5855 5847 5844 5837 5832 5827 5821 5820 5814 5810 5806 5802 5797 5792 5788 5784 5781 5777 5774 5774 5774 5773 5770 5769 5770 5774 5773 5775 5771 5771 5771 5770 5767
5795 5775 5806 5756 5750 5751 5763 5797 5839 5853 5853 5858 5853 5857 5863 5864 5861 5854 5852 5844 5837 5832 5829 5824 5819 5816 5810 5807 5801 5793 5788 5786 5782 5779 5778 5778 5777 5773 5769 5768 5767 5770 5773 5773 5771 5771 5772 5772 5771
5812 5817 5776 5761 5744 5744 5754 5771 5789 5834 5843 5850 5854 5860 5867 5868 5865 5860 5860 5852 5845 5839 5837 5831 5826 5823 5816 5808 5801 5795 5789 5789 5785 5780 5778 5777 5778 5774 5769 5764 5764 5766 5770 5773 5773 5774 5775 5774 5771
5801 5796 5783 5779 5759 5740 5738 5759 5828 5841 5850 5851 5860 5868 5871 5873 5874 5869 5867 5860 5855 5847 5836 5831 5828 5825 5815 5808 5801 5793 5788 5788 5784 5781 5781 5779 5775 5772 5767 5766 5767 5767 5769 5772 5774 5776 5776 5772 5770
5826 5817 5806 5778 5758 5748 5750 5768 5852 5855 5864 5861 5866 5872 5876 5884 5881 5878 5873 5867 5857 5847 5842 5833 5830 5828 5821 5813 5803 5795 5788 5784 5782 5781 5781 5779 5774 5771 5770 5770 5768 5769 5770 5772 5774 5775 5774 5773 5772